Temperature
18 18 18 18 18 18 18 18 18 18 18 18 18 18 18 18 18 18 18 18 18 18 18 18 18 18 18 18 18 18 18 18 18 18 18 18 18 18 18 18 18 18 18
18 18 18 18 18 18 18 18 18 18 18 18 18 18 18 18 18 18 18 18 18 18 18 18 18 18 18 18 18 18 18 18 18 18 18 18 18 18 18 18 18 18 18
18 18 18 18 18 18 18 18 18 18 18 18 18 18 18 18 18 18 18 18 18 18 18 18 18 18 18 18 18 18 18 18 18 18 18 18 18 18 18 18 18 18 18
18 18 18 18 18 18 18 18 18 18 18 18 18 18 18 18 18 18 18 18 18 18 18 18 18 18 18 18 18 18 18 18 18 18 18 17 18 18 18 17 18 17 17
18 18 18 18 18 18 18 18 18 18 18 18 17 17 17 18 18 17 17 18 18 18 18 18 18 17 17 17 17 17 17 18 17 17 17 17 17 17 17 17 17 17 17
18 18 18 18 18 18 18 18 18 18 18 17 17 17 17 17 17 17 17 17 17 17 17 17 17 17 17 17 17 17 17 17 17 17 17 17 17 17 17 17 17 17 17
18 18 18 18 18 18 17 17 17 17 17 17 17 17 17 17 17 17 17 17 17 17 17 17 17 17 17 17 17 17 17 17 17 17 17 17 17 17 17 17 17 17 17
18 18 18 18 18 17 17 17 17 17 17 17 17 17 17 17 17 17 17 17 17 17 17 17 17 17 17 17 17 17 17 17 17 17 17 17 17 17 17 17 17 17 17
18 18 18 17 17 17 17 17 17 17 17 17 17 17 17 17 17 17 17 17 17 17 17 17 17 17 17 17 17 17 17 17 17 16 16 16 16 17 17 17 17 17 17
18 18 17 17 17 17 17 17 17 17 17 17 17 17 17 16 17 17 16 17 16 16 16 16 16 16 17 17 17 17 16 16 16 16 16 16 16 16 16 16 16 16 17
18 18 17 17 17 17 17 17 17 17 16 16 16 16 16 16 16 16 16 16 16 16 16 16 16 16 16 16 16 16 16 16 16 16 16 16 16 16 16 16 16 16 16
18 17 17 17 17 17 17 17 17 16 16 16 16 16 16 16 16 16 16 16 16 16 16 16 16 16 16 16 16 16 16 16 16 16 16 16 16 16 16 16 16 16 16
18 17 17 17 17 17 17 17 17 16 16 16 16 16 16 16 16 16 16 16 16 16 16 16 16 16 16 16 16 16 16 16 16 16 16 16 16 16 16 16 16 16 16
18 18 17 17 17 17 17 17 17 16 16 16 16 16 16 16 16 16 16 16 16 16 16 16 16 16 16 16 16 16 16 16 15 15 15 15 15 15 15 15 16 15 15
18 18 17 17 17 17 17 17 16 16 16 16 16 16 16 16 16 16 16 16 15 16 16 16 16 16 16 16 16 15 15 15 15 15 15 15 15 15 15 15 15 15 15
18 18 17 17 17 17 17 17 16 16 16 16 16 16 16 16 16 16 15 15 15 15 15 15 15 15 15 15 15 15 15 15 15 15 15 15 15 15 15 15 15 15 15
18 18 18 17 17 17 17 17 16 16 16 16 16 16 16 16 16 15 15 15 15 15 15 15 15 15 15 15 15 15 15 15 15 15 15 15 15 14 14 14 14 14 14
18 18 18 17 17 17 17 17 16 16 16 16 16 16 16 16 16 15 15 15 15 15 15 15 15 15 15 15 15 15 14 14 14 14 14 14 14 14 14 14 14 14 14
18 18 18 17 17 17 17 17 16 16 16 16 16 16 16 16 15 15 15 15 15 15 15 15 15 15 15 15 14 14 14 14 14 14 14 14 14 14 14 14 13 13 14
18 18 18 17 17 17 17 16 16 16 16 16 16 16 15 15 15 15 15 15 15 15 14 14 14 14 14 14 14 14 14 14 14 14 14 14 14 14 13 13 13 13 13
18 18 17 17 17 17 16 16 16 16 16 16 16 15 15 15 15 15 15 15 15 14 14 14 14 14 14 14 14 14 13 13 13 13 13 13 13 13 13 13 13 13 13
18 18 17 17 17 16 16 16 16 16 16 15 15 15 15 15 15 15 15 15 15 14 14 14 14 14 14 14 14 14 13 13 13 13 13 13 13 13 13 13 13 13 13
17 17 17 17 17 16 16 16 16 15 15 15 15 15 15 15 15 15 15 15 14 14 14 14 14 14 14 14 14 14 13 13 13 13 13 13 13 13 13 13 13 13 13
17 17 17 17 16 16 16 16 16 15 15 15 15 15 15 15 15 15 14 14 14 14 14 14 14 14 14 14 13 13 13 13 13 12 12 12 13 13 13 13 13 12 12
17 17 17 16 16 16 16 16 15 15 15 15 15 15 15 15 14 14 14 14 14 14 14 14 14 14 14 13 13 13 13 13 13 13 12 12 12 12 12 12 12 12 12
17 17 16 16 16 16 16 15 15 15 15 15 15 15 14 14 14 14 14 14 14 14 14 14 14 14 13 13 13 13 13 13 13 13 13 12 12 12 12 12 12 12 12
Wind_Speed
0 1 6 8 8 9 9 10 11 12 12 12 13 13 13 13 14 14 14 13 13 13 12 12 12 13 13 13 12 12 12 12 12 12 11 11 10 10 10 10 9 9 10
4 3 7 9 9 9 10 11 12 13 13 13 14 14 13 13 13 13 14 14 13 13 13 12 13 13 13 13 13 13 13 12 12 11 11 10 10 9 9 9 9 8 10
5 5 7 9 10 11 11 12 12 14 14 14 14 14 13 13 13 13 13 13 13 13 13 13 13 13 14 14 13 13 13 12 12 11 10 7 8 9 9 9 9 9 10
7 6 8 10 10 11 12 13 13 14 14 14 14 14 13 13 13 13 13 13 13 13 13 13 12 13 13 13 13 13 13 13 12 10 8 7 7 9 9 9 9 9 9
7 7 9 10 11 12 13 13 13 14 14 14 14 14 14 13 13 13 13 13 13 13 12 12 12 12 13 13 13 13 13 12 11 10 8 7 7 10 10 9 9 9 9
7 7 9 10 11 12 12 12 13 13 14 14 13 13 13 13 13 13 13 12 12 12 12 11 11 11 12 12 12 12 12 12 10 8 7 7 7 10 10 9 9 9 9
6 7 9 11 11 12 12 12 12 13 13 13 13 12 12 12 12 12 12 12 12 11 11 10 10 10 11 11 11 11 12 11 10 8 6 6 8 10 10 9 8 8 8
8 6 9 12 12 12 12 12 12 12 12 12 12 12 12 11 11 12 12 11 11 11 10 9 9 10 10 11 11 11 10 9 9 7 6 6 8 9 9 8 8 8 8
7 6 6 8 10 12 12 12 12 11 11 11 11 11 11 11 11 11 10 11 10 10 10 9 9 9 9 9 10 10 10 9 7 6 6 5 8 9 9 8 8 8 8
6 6 5 6 7 8 8 10 10 10 10 10 10 10 10 10 9 9 9 9 9 9 9 9 9 9 9 9 9 9 9 8 7 6 5 6 8 9 9 9 8 8 7
6 4 4 5 5 6 6 7 8 8 8 8 8 9 8 6 6 6 7 8 8 8 8 8 9 9 9 8 9 9 8 7 6 5 5 7 9 10 10 9 9 8 8
6 5 5 4 5 5 5 6 4 4 5 5 5 6 6 5 4 5 6 6 7 8 8 8 8 8 7 6 7 8 7 7 6 5 6 8 10 11 10 10 9 9 8
7 6 5 5 5 4 3 4 3 3 3 4 5 6 6 5 4 4 4 5 5 7 7 8 8 7 6 6 6 6 7 7 6 5 6 8 10 10 10 10 9 9 9
7 6 6 5 4 4 4 3 3 3 2 3 4 6 5 3 3 2 2 3 4 5 5 6 5 6 7 8 7 7 7 6 6 6 6 8 9 9 9 9 9 9 9
7 7 6 6 5 4 4 2 3 3 3 3 4 5 6 4 3 2 2 3 3 5 5 5 5 5 5 6 7 7 6 6 6 6 6 7 8 8 9 9 9 9 8
7 7 6 6 5 5 4 3 3 3 3 4 4 5 6 5 4 3 3 3 3 4 5 5 4 4 4 5 5 5 5 6 6 7 6 6 7 8 8 8 9 9 8
8 7 7 7 6 5 4 4 4 3 4 3 3 5 6 6 5 4 3 2 3 5 6 6 5 5 5 5 5 5 4 5 5 6 6 6 6 7 8 8 8 8 8
7 7 7 7 6 5 4 4 4 4 4 3 4 5 6 6 7 5 3 2 3 5 5 4 4 4 4 4 3 3 3 4 5 5 6 6 6 6 8 9 9 8 7
7 7 6 5 6 5 4 4 4 4 4 4 5 5 5 6 7 6 3 3 4 4 4 4 3 3 4 3 3 3 3 3 3 4 5 6 6 6 6 7 8 8 7
7 7 6 5 5 5 4 4 3 3 2 3 4 4 5 5 6 6 4 4 5 4 3 3 4 3 3 2 3 4 3 3 3 3 3 4 5 5 5 4 5 5 6
7 7 6 6 5 5 3 3 3 2 1 2 2 4 5 5 6 6 4 3 4 4 3 3 3 4 2 2 3 3 4 4 3 2 2 3 3 3 4 4 4 4 3
7 7 6 6 6 5 4 3 2 2 2 1 2 3 4 5 5 5 5 3 4 4 4 3 3 2 1 2 3 3 2 3 3 3 2 2 2 2 2 3 3 3 2
7 6 6 6 6 5 4 3 3 3 3 2 1 1 1 3 4 5 5 4 4 4 4 3 3 4 2 1 1 3 3 2 1 3 3 2 1 1 1 2 3 2 1
7 6 6 6 5 5 5 5 5 4 2 2 2 1 0 2 3 4 5 5 4 4 4 3 3 3 3 2 0 1 2 3 3 0 3 3 2 1 0 1 1 2 2
8 7 6 6 5 5 5 6 5 3 2 1 1 2 1 0 1 3 5 5 4 4 4 3 3 3 3 3 2 1 2 2 2 3 1 2 2 2 1 0 1 2 2
6 6 6 6 5 5 5 6 6 5 4 3 2 2 1 0 0 1 3 4 4 4 4 3 3 3 3 3 2 2 2 2 2 2 2 1 1 2 2 1 1 2 2
Wind_Direction
128 108 96 89 86 81 79 79 82 84 83 90 96 96 95 93 91 90 90 89 89 88 87 87 88 91 93 93 95 100 104 104 104 102 101 102 105 106 109 110 111 113 116
150 118 97 90 85 84 85 85 87 88 87 94 97 95 92 91 91 92 91 90 89 88 86 87 89 91 92 91 92 95 100 101 102 100 98 99 104 109 114 117 119 121 118
128 115 102 95 88 87 92 92 92 93 91 93 94 93 91 90 91 92 92 91 89 87 87 88 89 90 90 91 91 92 94 94 95 92 91 89 94 102 111 117 119 122 121
124 114 107 101 94 90 91 93 94 94 94 94 92 91 89 90 92 92 91 90 89 87 86 88 89 87 88 90 91 91 91 91 92 89 84 84 90 95 106 114 117 120 122
112 112 114 106 100 95 92 91 96 96 94 94 92 91 89 89 91 93 91 90 91 91 89 88 88 87 88 89 89 90 91 91 87 83 81 81 89 97 101 109 110 117 119
113 114 118 111 106 101 97 96 95 97 96 94 92 90 89 89 90 92 92 91 91 92 91 90 87 86 87 87 89 91 91 89 84 80 81 86 93 100 103 106 108 114 122
120 119 118 112 108 106 103 99 98 98 98 97 96 93 90 90 91 91 91 91 90 88 90 90 87 84 85 85 85 87 91 88 81 77 79 91 101 105 107 109 110 112 120
128 123 122 117 112 110 107 102 99 100 100 99 98 97 95 93 94 94 94 92 90 87 87 87 84 85 85 86 85 85 89 89 83 81 77 92 109 110 111 113 116 113 122
124 121 114 120 116 112 110 106 102 102 103 102 99 98 97 96 96 98 95 94 91 87 84 82 83 85 85 89 89 90 88 83 76 80 90 96 110 110 109 110 111 116 119
123 123 123 120 118 116 115 112 107 105 105 106 105 102 99 96 96 97 96 93 89 87 84 81 81 82 82 86 90 94 90 80 72 72 83 101 108 111 111 105 104 105 109
135 136 136 134 130 129 127 119 115 111 109 107 107 106 100 90 89 91 95 93 90 84 82 80 79 78 79 82 87 89 86 79 73 70 85 102 108 109 107 103 99 101 104
155 163 157 152 148 144 135 123 119 113 105 103 109 109 107 100 92 85 84 83 81 79 75 70 73 74 74 76 78 83 82 77 74 77 94 106 109 107 107 103 98 96 97
159 159 165 169 161 150 131 134 129 115 107 106 112 120 115 101 85 70 60 57 62 69 65 62 62 63 72 78 82 83 83 78 72 74 94 109 109 105 103 102 98 97 95
146 153 155 159 152 153 146 142 133 123 117 111 119 125 117 101 86 79 65 50 56 71 74 71 71 68 73 79 82 84 82 80 75 71 83 103 110 108 103 99 98 95 92
148 152 150 149 147 141 131 134 123 126 126 120 114 120 123 119 117 100 83 68 69 81 85 83 81 76 74 78 84 89 85 83 75 69 69 85 103 109 109 106 100 96 95
151 152 149 142 143 137 133 131 129 127 120 109 103 121 129 129 123 109 91 73 70 84 91 93 93 87 77 80 75 80 86 86 82 79 72 72 89 100 103 102 98 95 93
157 154 155 151 145 144 141 142 129 123 113 102 97 108 115 117 116 112 98 85 82 90 91 90 83 81 75 74 68 68 77 80 83 82 80 76 79 87 90 94 94 90 87
154 154 160 153 145 142 140 130 126 119 108 103 106 102 108 109 109 106 99 92 98 90 90 87 84 82 73 70 67 69 76 80 80 84 82 81 80 76 75 82 85 84 82
156 156 150 139 141 141 130 117 118 112 105 105 108 103 106 105 108 110 110 107 103 93 85 96 84 99 92 74 71 67 65 73 75 85 79 80 88 86 76 74 77 79 78
153 148 141 131 131 129 114 98 93 90 98 100 102 109 112 106 107 104 103 101 100 91 82 94 98 85 94 96 81 61 46 49 60 72 86 88 89 94 91 84 76 71 72
141 136 130 129 132 126 119 125 124 128 131 107 112 119 119 118 116 110 108 104 101 103 106 109 107 90 72 87 82 49 24 31 43 47 70 85 85 96 104 104 94 78 67
151 149 141 139 141 136 141 152 154 148 147 133 107 110 122 126 134 133 129 124 116 109 102 101 106 100 83 80 111 100 43 7 7 14 31 73 73 94 102 110 109 99 74
154 159 155 153 150 143 134 120 99 76 62 51 57 95 140 139 144 141 140 132 128 124 128 128 129 125 132 57 100 131 136 196 305 344 4 20 34 73 91 111 108 113 110
166 159 155 156 148 145 138 137 139 138 149 191 185 189 209 147 142 149 147 141 139 135 137 146 136 135 137 143 56 60 129 151 151 317 336 343 358 45 37 109 129 130 130
164 162 164 162 156 156 150 147 146 143 158 157 133 129 112 89 133 162 154 146 148 147 153 147 137 137 149 157 156 126 88 77 104 138 228 315 342 331 332 170 162 152 154
163 165 167 164 165 164 154 152 153 154 156 145 153 165 169 135 70 131 148 150 156 158 163 167 163 158 162 153 148 147 149 147 161 146 171 228 272 304 325 341 153 179 176
Height
1513 1512 1511 1509 1508 1507 1506 1505 1505 1504 1502 1501 1502 1504 1505 1506 1507 1508 1508 1509 1509 1509 1509 1509 1509 1510 1510 1510 1511 1511 1512 1512 1513 1513 1514 1514 1514 1515 1515 1516 1517 1518 1519
1513 1512 1511 1510 1509 1508 1507 1507 1506 1505 1503 1502 1503 1505 1506 1507 1508 1509 1509 1510 1510 1510 1510 1510 1511 1511 1511 1512 1512 1513 1513 1514 1514 1515 1515 1516 1516 1516 1517 1518 1518 1519 1520
1514 1513 1512 1512 1510 1509 1509 1508 1508 1507 1506 1505 1506 1507 1508 1509 1509 1510 1511 1511 1511 1511 1512 1512 1512 1513 1513 1514 1514 1514 1515 1515 1516 1516 1516 1517 1517 1518 1518 1519 1520 1521 1521
1514 1514 1513 1513 1512 1511 1510 1510 1509 1509 1509 1508 1508 1509 1510 1510 1511 1511 1512 1512 1512 1513 1513 1513 1514 1514 1515 1515 1515 1516 1516 1517 1517 1517 1518 1518 1518 1519 1519 1520 1521 1521 1522
1515 1515 1514 1514 1513 1513 1512 1511 1511 1511 1511 1510 1511 1511 1511 1512 1512 1513 1513 1513 1514 1514 1515 1515 1515 1516 1516 1517 1517 1517 1518 1518 1518 1519 1519 1519 1519 1520 1520 1521 1521 1522 1523
1516 1516 1515 1515 1515 1514 1513 1513 1513 1512 1512 1512 1512 1513 1513 1513 1514 1514 1514 1515 1515 1516 1516 1516 1517 1517 1518 1518 1518 1519 1519 1519 1520 1520 1520 1520 1521 1521 1521 1522 1522 1523 1524
1517 1517 1516 1516 1516 1515 1515 1515 1515 1514 1514 1514 1514 1514 1514 1515 1515 1515 1516 1516 1516 1517 1517 1518 1518 1518 1519 1519 1520 1520 1520 1521 1521 1521 1521 1521 1522 1522 1522 1523 1523 1523 1524
1518 1518 1518 1517 1517 1517 1516 1516 1516 1516 1516 1516 1516 1516 1516 1516 1517 1517 1517 1517 1518 1518 1518 1519 1519 1519 1520 1520 1521 1521 1521 1522 1522 1522 1522 1522 1523 1523 1523 1523 1524 1524 1524
1519 1519 1519 1519 1518 1518 1518 1518 1518 1518 1518 1518 1518 1518 1518 1518 1518 1518 1519 1519 1519 1519 1519 1520 1520 1520 1521 1521 1522 1522 1522 1523 1523 1523 1523 1523 1523 1523 1524 1524 1524 1525 1525
1520 1520 1520 1520 1520 1520 1520 1519 1519 1519 1519 1519 1519 1519 1520 1520 1520 1520 1520 1520 1520 1520 1521 1521 1521 1521 1521 1522 1522 1523 1523 1523 1523 1524 1523 1524 1524 1524 1524 1525 1525 1526 1526
1521 1521 1522 1521 1521 1521 1521 1521 1521 1521 1521 1521 1521 1521 1521 1521 1521 1521 1522 1522 1522 1522 1522 1522 1522 1522 1522 1523 1523 1523 1523 1524 1524 1524 1524 1524 1524 1524 1525 1525 1526 1526 1527
1521 1522 1522 1522 1523 1523 1522 1522 1522 1523 1523 1523 1523 1523 1523 1523 1523 1523 1523 1523 1523 1523 1523 1523 1523 1523 1523 1523 1524 1524 1524 1524 1525 1525 1525 1525 1525 1525 1525 1526 1526 1527 1527
1522 1522 1523 1523 1523 1523 1524 1524 1524 1524 1524 1524 1524 1524 1524 1524 1524 1525 1525 1525 1525 1525 1524 1524 1524 1524 1524 1524 1525 1525 1525 1525 1525 1525 1526 1526 1526 1526 1526 1527 1527 1527 1528
1522 1522 1523 1523 1524 1524 1525 1525 1525 1525 1525 1525 1525 1525 1525 1525 1525 1526 1526 1526 1526 1526 1526 1526 1526 1526 1526 1526 1526 1526 1526 1526 1526 1526 1527 1526 1527 1527 1527 1527 1527 1528 1528
1521 1522 1523 1524 1524 1525 1525 1526 1526 1526 1526 1526 1526 1526 1526 1526 1526 1526 1527 1527 1527 1527 1527 1527 1527 1527 1527 1527 1527 1527 1527 1527 1527 1527 1527 1527 1528 1528 1528 1528 1528 1528 1528
1521 1522 1523 1524 1525 1525 1525 1526 1526 1527 1527 1527 1527 1527 1527 1527 1527 1527 1527 1527 1527 1528 1527 1528 1528 1527 1528 1528 1528 1528 1528 1528 1529 1528 1528 1529 1529 1529 1529 1529 1529 1529 1529
1520 1522 1523 1524 1524 1525 1526 1526 1526 1527 1528 1528 1528 1528 1528 1528 1528 1528 1528 1528 1528 1528 1528 1528 1528 1528 1528 1529 1528 1529 1529 1529 1529 1529 1529 1530 1530 1530 1530 1530 1530 1529 1529
1519 1521 1522 1523 1524 1525 1525 1526 1526 1527 1528 1528 1529 1529 1529 1528 1528 1528 1528 1528 1528 1528 1528 1528 1529 1529 1529 1529 1529 1529 1530 1530 1530 1530 1530 1530 1530 1530 1530 1530 1530 1530 1530
1519 1520 1522 1523 1524 1525 1525 1526 1527 1527 1528 1528 1528 1529 1529 1529 1529 1529 1529 1528 1529 1529 1529 1528 1529 1529 1529 1529 1530 1530 1530 1530 1530 1530 1531 1531 1531 1531 1530 1530 1530 1530 1530
1517 1519 1521 1522 1523 1524 1525 1526 1526 1527 1527 1528 1528 1528 1528 1529 1529 1529 1529 1529 1529 1529 1529 1529 1529 1529 1529 1529 1530 1530 1530 1531 1531 1531 1531 1531 1531 1531 1531 1531 1531 1530 1530
1516 1518 1519 1521 1522 1523 1524 1524 1525 1526 1527 1527 1528 1528 1529 1529 1529 1529 1529 1529 1528 1528 1528 1529 1529 1529 1529 1529 1530 1530 1531 1531 1531 1531 1531 1531 1531 1531 1531 1531 1531 1530 1530
1514 1516 1518 1519 1521 1522 1523 1524 1525 1525 1526 1527 1527 1528 1528 1528 1528 1528 1528 1528 1528 1528 1528 1528 1528 1528 1529 1529 1529 1529 1530 1532 1531 1531 1531 1531 1531 1531 1531 1530 1530 1530 1530
1513 1515 1516 1518 1520 1521 1522 1523 1524 1525 1525 1526 1526 1527 1527 1528 1528 1528 1527 1527 1527 1527 1527 1527 1528 1528 1528 1529 1529 1529 1530 1530 1530 1531 1530 1530 1530 1530 1530 1530 1530 1530 1529
1511 1513 1515 1517 1518 1520 1521 1522 1522 1523 1523 1524 1525 1526 1526 1526 1526 1527 1527 1527 1527 1527 1527 1527 1527 1527 1528 1527 1528 1528 1529 1529 1529 1530 1530 1530 1530 1529 1529 1529 1529 1529 1528
1509 1511 1513 1515 1517 1518 1520 1521 1521 1522 1522 1523 1524 1524 1525 1525 1525 1525 1525 1526 1526 1526 1526 1526 1526 1527 1527 1527 1527 1527 1527 1528 1528 1528 1529 1529 1529 1529 1529 1528 1528 1528 1528
1507 1509 1511 1513 1514 1516 1517 1519 1520 1520 1521 1521 1522 1522 1523 1523 1524 1524 1524 1524 1524 1525 1525 1525 1525 1526 1526 1526 1526 1527 1527 1527 1527 1527 1527 1527 1528 1528 1528 1527 1527 1527 1527